Location: Bernay
(48.6766°N, 2.9386°E)
Time: 05:49:14
(UTC+00:00)

Cosmos 332 Rocket - Pass Details

Date: 12 January 2026
Orbit: 672 x 693 km, 74.0° (Epoch: 17 February)

Event Time Altitude Azimuth Distance (km) Brightness Sun altitude
Rises 17:15:42 0° 342° (NNW) 3,038 7.1 -9.6°
Reaches altitude 10° 17:18:13 10° 353° (N) 2,122 6.2 -10.0°
Maximum altitude 17:22:30 32° 57° (ENE) 1,156 4.4 -10.6°
Drops below altitude 10° 17:26:48 10° 121° (ESE) 2,120 5.9 -11.3°
Sets 17:29:18 0° 131° (SE) 3,035 6.8 -11.7°
